Simultaneous Nadir Overpasses (SNOs) Predictions

Prediction of SNOs between AQUA and METOP-B Satellite Orbit:

Table of predicted SNOs for the next 14.0 days since TLE Epoch: 1/16/2021
Index Date (AQUA) Time (AQUA) Lat,Lon (AQUA) SZA (AQUA ) Date (METOP-B) Time (METOP-B) Lat,Lon (METOP-B) SZA (METOP-B ) Distance(km) Time Diff (sec)
1 01/16/2021 10:58:46 -73.77,-170.38 85.33 01/16/2021 10:57:47 -73.77,-170.32 85.32 2.12 59
2 01/16/2021 11:48:14 73.81, -2.83 94.71 01/16/2021 11:48:26 73.81, -2.89 94.72 2.04 12
3 01/16/2021 12:37:49 -74.28, 163.73 84.79 01/16/2021 12:38:58 -74.30, 165.63 84.85 57.19 69
4 01/19/2021 06:33:00 -73.79,-103.99 85.87 01/19/2021 06:32:10 -73.77,-103.91 85.88 3.20 50
5 01/19/2021 07:22:28 73.84, 63.55 94.18 01/19/2021 07:22:48 73.86, 63.62 94.19 3.22 20
6 01/22/2021 02:07:14 -73.77, -37.50 86.50 01/22/2021 02:06:34 -73.77, -37.52 86.49 0.52 40
7 01/22/2021 02:56:42 73.82, 130.02 93.55 01/22/2021 02:57:12 73.85, 130.00 93.57 3.23 30
8 01/24/2021 21:41:28 -73.75, 28.98 87.18 01/24/2021 21:40:58 -73.77, 28.88 87.16 3.51 30
9 01/24/2021 22:30:57 73.86,-163.62 92.93 01/24/2021 22:31:36 73.84,-163.62 92.90 2.66 39
10 01/27/2021 17:15:42 -73.80, 95.33 87.85 01/27/2021 17:15:20 -73.81, 95.38 87.83 2.32 22
11 01/27/2021 18:05:10 73.86, -97.17 92.22 01/27/2021 18:05:58 73.88, -97.13 92.23 2.39 48



Historial Predications of SNOs between AQUA and METOP-B
